IBADAL6 Weather Reports


Display with metric or nautical units.
time (UTC)temp
F
wind
direction
speed
MPH
gust
MPH
rain 1hr
in
rain 24hr
in
rain mn
in
humidity
%
barometer
mb
20260508180014 66 137 2.0 4.0 0.00 0.00 0.00 74 1014.6
20260508174512 66 133 2.0 4.0 0.00 0.00 0.00 74 1014.6
20260508173016 66 169 3.0 8.0 0.00 0.00 0.00 75 1014.6
20260508171521 66 163 1.0 8.0 0.00 0.00 0.00 75 1014.6
20260508170011 65 143 4.0 9.0 0.00 0.00 0.00 77 1014.5
20260508164509 66 139 5.0 9.0 0.00 0.00 0.00 76 1014.4
20260508163008 66 132 4.0 10.0 0.00 0.00 0.00 74 1014.4
20260508161511 67 126 6.0 9.0 0.00 0.00 0.00 74 1014.3
20260508160008 67 132 5.0 9.0 0.00 0.00 0.00 73 1014.5
20260508154506 69 157 3.0 8.0 0.00 0.00 0.00 71 1014.6
20260508153003 69 143 3.0 9.0 0.00 0.00 0.00 70 1014.7
20260508151504 68 167 3.0 10.0 0.00 0.00 0.00 70 1014.8
20260508150003 66 125 6.0 9.0 0.00 0.00 0.00 72 1014.6
20260508143003 66 117 6.0 9.0 0.00 0.00 0.00 76 1014.5
20260508141607 67 124 4.0 10.0 0.00 0.00 0.00 73 1014.7
20260508140112 68 134 4.0 8.0 0.00 0.00 0.00 72 1014.9
20260508134559 68 158 4.0 7.0 0.00 0.00 0.00 72 1015.1
20260508133058 67 133 3.0 6.0 0.00 0.00 0.00 71 1015.1
20260508131601 67 126 4.0 8.0 0.00 0.00 0.00 72 1015.3
20260508130057 69 158 4.0 7.0 0.00 0.00 0.00 68 1015.3
20260508124600 68 126 4.0 7.0 0.00 0.00 0.00 69 1015.3
20260508123054 69 136 4.0 8.0 0.00 0.00 0.00 68 1015.5
20260508121552 69 140 3.0 9.0 0.00 0.00 0.00 67 1015.4
20260508120048 66 123 3.0 7.0 0.00 0.00 0.00 70 1015.3
20260508114547 66 129 4.0 7.0 0.00 0.00 0.00 70 1015.3
20260508113112 67 124 3.0 7.0 0.00 0.00 0.00 70 1015.3
20260508111547 66 140 3.0 6.0 0.00 0.00 0.00 71 1015.2
20260508110047 66 138 3.0 7.0 0.00 0.00 0.00 73 1015.3
20260508104554 67 138 4.0 7.0 0.00 0.00 0.00 72 1015.3
20260508103043 67 115 2.0 6.0 0.00 0.00 0.00 73 1015.4
20260508101547 66 131 4.0 6.0 0.00 0.00 0.00 74 1015.4
20260508100042 67 131 3.0 6.0 0.00 0.00 0.00 73 1015.7
20260508094538 66 93 3.0 6.0 0.00 0.00 0.00 75 1015.5
20260508093037 66 137 2.0 5.0 0.00 0.00 0.00 74 1015.5
20260508091535 66 129 3.0 5.0 0.00 0.00 0.00 73 1015.5
20260508090042 66 120 1.0 5.0 0.00 0.00 0.00 72 1015.3
20260508084530 65 105 2.0 4.0 0.00 0.00 0.00 74 1015.2
20260508083036 65 129 2.0 4.0 0.00 0.00 0.00 72 1015.0
20260508081528 65 96 2.0 4.0 0.00 0.00 0.00 71 1014.8
20260508080028 65 128 1.0 4.0 0.00 0.00 0.00 72 1014.6
20260508074527 65 73 1.0 5.0 0.00 0.00 0.00 71 1014.4
20260508073125 65 240 0.0 3.0 0.00 0.00 0.00 68 1014.4
20260508071520 63 261 0.0 4.0 0.00 0.00 0.00 71 1014.2
20260508070017 61 290 0.0 4.0 0.00 0.00 0.00 73 1014.0
20260508064544 60 303 3.0 6.0 0.00 0.00 0.00 73 1013.9
20260508063017 59 313 4.0 7.0 0.00 0.00 0.00 75 1013.8
20260508061515 59 302 2.0 6.0 0.00 0.00 0.00 75 1013.8
20260508060015 59 290 1.0 4.0 0.00 0.00 0.00 75 1013.6
20260508054520 58 307 0.0 3.0 0.00 0.00 0.00 76 1013.6
20260508053013 58 300 1.0 3.0 0.00 0.00 0.00 77 1013.5
20260508051522 58 293 1.0 5.0 0.00 0.00 0.00 77 1013.4
20260508050017 58 302 1.0 4.0 0.00 0.00 0.00 77 1013.2
20260508044510 58 302 2.0 8.0 0.00 0.00 0.00 77 1013.1
20260508043012 58 302 4.0 8.0 0.00 0.00 0.00 78 1013.0
20260508041507 58 302 3.0 6.0 0.00 0.00 0.00 78 1013.0
20260508040007 58 300 2.0 5.0 0.00 0.00 0.00 78 1012.9
20260508034516 58 307 0.0 4.0 0.00 0.00 0.00 79 1012.9
20260508033005 58 318 1.0 4.0 0.00 0.00 0.00 80 1012.9
20260508031502 58 299 2.0 4.0 0.00 0.00 0.00 80 1013.1
20260508030002 58 295 0.0 5.0 0.00 0.00 0.00 79 1013.1
20260508024559 59 299 1.0 4.0 0.00 0.00 0.00 79 1013.0
20260508023059 59 303 1.0 3.0 0.00 0.00 0.00 79 1013.2
20260508021605 59 297 1.0 7.0 0.00 0.00 0.00 79 1013.2
20260508020056 59 292 2.0 5.0 0.00 0.00 0.00 80 1013.3
20260508014554 59 307 2.0 5.0 0.00 0.00 0.00 80 1013.5
20260508013053 59 297 2.0 4.0 0.00 0.00 0.00 80 1013.5
20260508010050 60 304 1.0 3.0 0.00 0.00 0.00 80 1013.9
20260508004550 59 307 1.0 3.0 0.00 0.00 0.00 80 1013.9
20260508003048 59 250 0.0 1.0 0.00 0.00 0.00 80 1014.1
20260508001546 59 259 0.0 2.0 0.00 0.00 0.00 80 1014.1
20260508000056 60 257 0.0 2.0 0.00 0.00 0.00 80 1014.2
20260507234547 60 311 0.0 2.0 0.00 0.00 0.00 79 1014.3
20260507233041 60 297 1.0 3.0 0.00 0.00 0.00 79 1014.3
20260507231544 61 314 1.0 3.0 0.00 0.00 0.00 79 1014.4
20260507230038 61 6 1.0 4.0 0.00 0.00 0.00 79 1014.6
20260507224536 61 345 1.0 4.0 0.00 0.00 0.00 79 1014.7
20260507223034 61 356 1.0 4.0 0.00 0.00 0.00 79 1014.8
20260507221532 61 37 0.0 0.0 0.00 0.00 0.00 81 1014.8
20260507220030 61 39 0.0 2.0 0.00 0.00 0.00 80 1014.9
20260507214531 61 48 0.0 1.0 0.00 0.00 0.00 80 1014.9
20260507213037 62 44 1.0 3.0 0.00 0.00 0.00 80 1014.9
20260507211541 62 15 1.0 5.0 0.00 0.00 0.00 80 1014.9
20260507210029 62 105 0.0 4.0 0.00 0.00 0.00 79 1014.9
20260507204528 62 127 0.0 3.0 0.00 0.00 0.00 79 1014.9
20260507203029 62 101 0.0 5.0 0.00 0.00 0.00 80 1014.8
20260507201527 62 38 1.0 5.0 0.00 0.00 0.00 79 1014.6
20260507200027 62 106 2.0 4.0 0.00 0.00 0.00 80 1014.3
20260507194527 62 108 2.0 4.0 0.00 0.00 0.00 80 1014.2
20260507193027 62 109 0.0 3.0 0.00 0.00 0.00 80 1014.0
20260507191527 62 130 1.0 7.0 0.00 0.00 0.00 80 1013.8
20260507190026 62 97 3.0 7.0 0.00 0.00 0.00 79 1013.7
20260507184524 62 169 2.0 7.0 0.00 0.00 0.00 79 1013.6
20260507183025 62 129 3.0 8.0 0.00 0.00 0.00 79 1013.4
20260507181523 62 96 4.0 7.0 0.00 0.00 0.00 78 1013.2